Location: D�pe
(52.6057°N, 8.1808°E)
Time: 01:58:55
(UTC+00:00)

Landsat 5 - Pass Details

Date: 29 October 2020
Orbit: 528 x 654 km, 98.2° (Epoch: 23 November)

Event Time Altitude Azimuth Distance (km) Brightness Sun altitude
Rises 17:02:03 0° 10° (N) 2,693 6.6 -9.6°
Reaches altitude 10° 17:04:11 10° 5° (N) 1,805 5.8 -9.9°
Maximum altitude 17:07:56 47° 291° (WNW) 727 4.4 -10.4°
Drops below altitude 10° 17:11:44 10° 217° (SW) 1,839 6.7 -11.0°
Sets 17:13:56 0° 212° (SSW) 2,748 7.5 -11.3°
